Content
SEND FEEDBACK

Daily
Averages
Monthly
Summary
United States of America

HAZELWOOD, MISSOURI


Home > North America > United States > Missouri
Elevation: 570 feet     Latitude: 38 45N     Longitude: 090 22W

WEATHER
 
SELECT A DAY
Number of Records: 201,199;   Date Range: 1/1/95 - 12/17/14
 
SHARE

PRINT THIS DATA

[ ← Previous Day ]
WEATHER ALMANAC - JANUARY 25, 2013
[ Next Day → ]
[ °C ]   °F
Weather ElementAverageHighLow
Temperature32.7 °F44.1 °F (2:54 pm)26.1 °F (6:54 am)
Dewpoint15.2 °F19 °F (11:54 am)9 °F (2:54 am)
Humidity49.3 %61 % (11:54 pm)37 % (2:54 pm)
Barometer30.19 in30.26 in (11:54 pm)30.14 in (6:13 am)
Wind Speed5.6 mph11.5 mph (2:54 pm)
Weather ElementAverage
Visibility10 mi
Wind DirectionSSE (174.3 °)

Weather ElementTotal
Precipitation---
Heating Degree Days29.9 (Base 65)
Averaged from 28 records on January 25, 2013
WEATHER CONDITIONS BREAKOUT
WIND DIRECTION BREAKOUT
WEATHER BY HOUR - JANUARY 25, 2013
[ °C ]   °F
Local TimeTemperatureDewpointHumidityBarometerVisibilityWind DirectionWind SpeedGust SpeedPrecipitationEventsConditions
1:54 AM27.0 °F10.0 °F49 %30.22 in10.0 miESE (110°)4.6 mphOvercast
2:22 AM26.6 °F10.4 °F51 %30.19 in10.0 miESE (120°)5.8 mphOvercast
2:40 AM28.4 °F10.4 °F47 %30.19 in10.0 miCalmOvercast
2:54 AM28.0 °F9.0 °F45 %30.21 in10.0 miSSE (150°)4.6 mphOvercast
3:54 AM28.0 °F10.0 °F47 %30.20 in10.0 miCalmOvercast
4:54 AM28.0 °F10.0 °F47 %30.19 in10.0 miCalmOvercast
5:54 AM28.0 °F10.9 °F49 %30.16 in10.0 miSSE (160°)3.5 mphOvercast
6:13 AM28.4 °F10.4 °F47 %30.14 in10.0 miCalmOvercast
6:54 AM26.1 °F10.9 °F53 %30.18 in10.0 miCalmOvercast
7:20 AM26.6 °F14.0 °F59 %30.15 in10.0 miCalmOvercast
7:54 AM28.0 °F12.9 °F53 %30.19 in10.0 miCalmOvercast
8:54 AM28.9 °F14.0 °F54 %30.20 in10.0 miWSW (240°)3.5 mphOvercast
9:54 AM32.0 °F17.1 °F54 %30.21 in10.0 miWest (260°)6.9 mphOvercast
10:52 AM37.4 °F17.6 °F45 %30.17 in10.0 miWest (280°)10.4 mphScattered Clouds
10:54 AM36.0 °F18.0 °F48 %30.19 in10.0 miWest (270°)8.1 mphScattered Clouds
11:54 AM37.9 °F19.0 °F47 %30.17 in10.0 miWSW (240°)10.4 mphClear
12:54 PM41.0 °F19.0 °F41 %30.15 in10.0 miWest (280°)8.1 mphClear
1:54 PM42.1 °F18.0 °F38 %30.14 in10.0 miWSW (250°)8.1 mphClear
2:54 PM44.1 °F19.0 °F37 %30.14 in10.0 miWSW (240°)11.5 mphScattered Clouds
3:54 PM43.0 °F18.0 °F37 %30.14 in10.0 miWSW (250°)11.5 mphClear
4:54 PM39.0 °F18.0 °F43 %30.15 in10.0 miWSW (250°)9.2 mphMostly Cloudy
5:54 PM35.1 °F18.0 °F50 %30.18 in10.0 miWSW (250°)6.9 mphMostly Cloudy
6:54 PM33.1 °F18.0 °F54 %30.19 in10.0 miWSW (250°)5.8 mphClear
7:54 PM30.9 °F18.0 °F59 %30.20 in10.0 miWest (260°)6.9 mphClear
8:54 PM33.1 °F19.0 °F56 %30.20 in10.0 miWSW (250°)9.2 mphClear
9:54 PM34.0 °F19.0 °F54 %30.22 in10.0 miWest (260°)9.2 mphClear
10:54 PM33.1 °F19.0 °F56 %30.25 in10.0 miWSW (250°)8.1 mphClear
11:54 PM30.9 °F19.0 °F61 %30.26 in10.0 miWest (260°)5.8 mphClear
Hourly data recorded from KSUS, located miles away from Hazelwood, Missouri







STORIES FROM OUR PARTNERS